Time,TemperatureF,DewpointF,PressureIn,WindDirection,WindDirectionDegrees,WindSpeedMPH,WindSpeedGustMPH,Humidity,HourlyPrecipIn,Conditions,Clouds,dailyrainin,SoftwareType,DateUTC
2014-10-21 00:01:00,80.9,68.0,29.96,SE,136,11.1,12.4,65,0.00,,,0.00,TxWx,2014-10-21 04:01:00,
2014-10-21 00:06:00,80.9,68.0,29.96,SSE,159,7.4,8.0,66,0.00,,,0.00,TxWx,2014-10-21 04:06:00,
2014-10-21 00:11:00,80.7,68.0,29.96,SE,136,5.6,5.6,65,0.00,,,0.00,TxWx,2014-10-21 04:11:00,
2014-10-21 00:16:00,80.7,68.0,29.96,SE,136,6.2,6.8,65,0.00,,,0.00,TxWx,2014-10-21 04:16:00,
2014-10-21 00:21:00,80.7,68.0,29.96,SE,136,6.8,8.0,65,0.00,,,0.00,TxWx,2014-10-21 04:21:00,
2014-10-21 00:26:00,80.8,68.0,29.96,SE,136,7.4,8.7,65,0.00,,,0.00,TxWx,2014-10-21 04:26:00,
2014-10-21 00:31:00,80.7,68.0,29.96,SE,136,6.2,6.8,66,0.00,,,0.00,TxWx,2014-10-21 04:31:00,
2014-10-21 00:36:00,80.8,69.0,29.96,SE,136,6.2,6.8,66,0.00,,,0.00,TxWx,2014-10-21 04:36:00,
2014-10-21 00:41:00,80.8,68.0,29.96,SE,136,10.5,10.5,66,0.00,,,0.00,TxWx,2014-10-21 04:41:00,
2014-10-21 00:46:00,80.9,68.0,29.97,SE,136,7.4,8.0,66,0.00,,,0.00,TxWx,2014-10-21 04:46:00,
2014-10-21 00:51:00,80.9,68.0,29.96,SSE,159,6.8,6.8,65,0.00,,,0.00,TxWx,2014-10-21 04:51:00,
2014-10-21 00:56:00,80.8,68.0,29.96,SE,136,6.2,6.2,65,0.00,,,0.00,TxWx,2014-10-21 04:56:00,
2014-10-21 01:01:00,80.8,68.0,29.96,SSE,159,5.6,6.8,65,0.00,,,0.00,TxWx,2014-10-21 05:01:00,
2014-10-21 01:06:00,80.7,68.0,29.96,South,181,2.5,2.5,65,0.00,,,0.00,TxWx,2014-10-21 05:06:00,
2014-10-21 01:11:00,80.7,68.0,29.96,SE,136,4.3,5.0,65,0.00,,,0.00,TxWx,2014-10-21 05:11:00,
2014-10-21 01:16:00,80.7,68.0,29.95,SSW,204,5.6,6.2,65,0.00,,,0.00,TxWx,2014-10-21 05:16:00,
2014-10-21 01:21:00,80.6,68.0,29.95,South,181,2.5,2.5,65,0.00,,,0.00,TxWx,2014-10-21 05:21:00,
2014-10-21 01:26:00,80.7,68.0,29.95,ESE,114,3.1,3.1,66,0.00,,,0.00,TxWx,2014-10-21 05:26:00,
2014-10-21 01:31:00,80.7,68.0,29.95,SSE,159,5.0,5.6,66,0.00,,,0.00,TxWx,2014-10-21 05:31:00,
2014-10-21 01:36:00,80.7,68.0,29.95,SSE,159,5.0,5.0,66,0.00,,,0.00,TxWx,2014-10-21 05:36:00,
2014-10-21 01:41:00,80.7,68.0,29.95,SE,136,5.0,6.8,66,0.00,,,0.00,TxWx,2014-10-21 05:41:00,
2014-10-21 01:46:00,80.7,68.0,29.95,SSW,204,1.9,1.9,66,0.00,,,0.00,TxWx,2014-10-21 05:46:00,
2014-10-21 01:51:00,80.5,67.0,29.95,SSE,159,5.0,5.0,65,0.00,,,0.00,TxWx,2014-10-21 05:51:00,
2014-10-21 01:56:00,80.6,68.0,29.95,SSE,159,3.1,3.1,65,0.00,,,0.00,TxWx,2014-10-21 05:56:00,
2014-10-21 02:01:00,80.7,69.0,29.94,SE,136,5.6,6.2,66,0.00,,,0.00,TxWx,2014-10-21 06:01:00,
2014-10-21 02:06:00,80.6,68.0,29.94,SSE,159,5.6,6.2,65,0.00,,,0.00,TxWx,2014-10-21 06:06:00,
2014-10-21 02:11:00,80.8,68.0,29.93,ESE,114,6.2,6.2,66,0.00,,,0.00,TxWx,2014-10-21 06:11:00,
2014-10-21 02:16:00,81.0,69.0,29.92,SE,136,5.6,6.2,66,0.00,,,0.00,TxWx,2014-10-21 06:16:00,
2014-10-21 02:21:00,80.7,68.0,29.92,South,181,5.6,6.8,66,0.00,,,0.00,TxWx,2014-10-21 06:21:00,
2014-10-21 02:26:00,80.9,68.0,29.92,SSE,159,3.7,4.3,65,0.00,,,0.00,TxWx,2014-10-21 06:26:00,
2014-10-21 02:31:00,80.8,68.0,29.92,SE,136,6.8,6.8,66,0.00,,,0.00,TxWx,2014-10-21 06:31:00,
2014-10-21 02:36:00,80.8,69.0,29.91,SE,136,7.4,7.4,66,0.00,,,0.00,TxWx,2014-10-21 06:36:00,
2014-10-21 02:41:00,80.9,68.0,29.91,SE,136,6.8,7.4,66,0.00,,,0.00,TxWx,2014-10-21 06:41:00,
2014-10-21 02:46:00,80.8,68.0,29.91,SE,136,5.6,5.6,66,0.00,,,0.00,TxWx,2014-10-21 06:46:00,
2014-10-21 02:51:00,80.8,68.0,29.91,SE,136,8.0,8.0,66,0.00,,,0.00,TxWx,2014-10-21 06:51:00,
2014-10-21 02:56:00,80.8,68.0,29.91,SE,136,5.6,5.6,66,0.00,,,0.00,TxWx,2014-10-21 06:56:00,
2014-10-21 03:01:00,80.8,69.0,29.91,SE,136,5.6,7.4,66,0.00,,,0.00,TxWx,2014-10-21 07:01:00,
2014-10-21 03:06:00,80.8,69.0,29.91,SSE,159,4.3,4.3,66,0.00,,,0.00,TxWx,2014-10-21 07:06:00,
2014-10-21 03:11:00,80.8,69.0,29.91,SE,136,4.3,4.3,66,0.00,,,0.00,TxWx,2014-10-21 07:11:00,
2014-10-21 03:16:00,80.6,69.0,29.91,SE,136,6.2,6.8,66,0.00,,,0.00,TxWx,2014-10-21 07:16:00,
2014-10-21 03:21:00,80.7,69.0,29.90,SSE,159,3.1,3.1,67,0.00,,,0.00,TxWx,2014-10-21 07:21:00,
2014-10-21 03:26:00,80.8,69.0,29.90,SE,136,4.3,4.3,67,0.00,,,0.00,TxWx,2014-10-21 07:26:00,
2014-10-21 03:31:00,80.6,69.0,29.90,SSE,159,6.2,9.3,67,0.00,,,0.00,TxWx,2014-10-21 07:31:00,
2014-10-21 03:36:00,80.7,69.0,29.90,SE,136,6.8,6.8,68,0.00,,,0.00,TxWx,2014-10-21 07:36:00,
2014-10-21 03:41:00,80.6,69.0,29.90,SE,136,6.8,7.4,68,0.00,,,0.00,TxWx,2014-10-21 07:41:00,
2014-10-21 03:46:00,80.5,69.0,29.90,SE,136,6.2,6.8,68,0.00,,,0.00,TxWx,2014-10-21 07:46:00,
2014-10-21 03:51:00,80.7,69.0,29.90,SE,136,6.8,6.8,68,0.00,,,0.00,TxWx,2014-10-21 07:51:00,
2014-10-21 03:56:00,80.7,69.0,29.90,SE,136,6.2,6.2,68,0.00,,,0.00,TxWx,2014-10-21 07:56:00,
2014-10-21 04:01:00,80.6,69.0,29.90,SSE,159,4.3,4.3,68,0.00,,,0.00,TxWx,2014-10-21 08:01:00,
2014-10-21 04:06:00,80.6,69.0,29.90,SE,136,3.1,3.1,68,0.00,,,0.00,TxWx,2014-10-21 08:06:00,
2014-10-21 04:11:00,80.7,69.0,29.90,SSE,159,3.7,3.7,68,0.00,,,0.00,TxWx,2014-10-21 08:11:00,
2014-10-21 04:16:00,80.7,70.0,29.90,SE,136,2.5,2.5,69,0.00,,,0.00,TxWx,2014-10-21 08:16:00,
2014-10-21 04:21:00,80.6,70.0,29.90,SSE,159,3.7,3.7,69,0.00,,,0.00,TxWx,2014-10-21 08:21:00,
2014-10-21 04:26:00,80.9,70.0,29.90,SE,136,5.0,5.0,69,0.00,,,0.00,TxWx,2014-10-21 08:26:00,
2014-10-21 04:31:00,80.7,70.0,29.90,SE,136,6.2,6.2,69,0.00,,,0.00,TxWx,2014-10-21 08:31:00,
2014-10-21 04:36:00,80.7,70.0,29.90,SE,136,4.3,5.0,69,0.00,,,0.00,TxWx,2014-10-21 08:36:00,
2014-10-21 04:41:00,80.8,70.0,29.90,SSE,159,3.7,4.3,69,0.00,,,0.00,TxWx,2014-10-21 08:41:00,
2014-10-21 04:46:00,80.7,70.0,29.91,SE,136,3.7,4.3,69,0.00,,,0.00,TxWx,2014-10-21 08:46:00,
2014-10-21 04:51:00,80.9,70.0,29.90,SSE,159,3.7,3.7,70,0.00,,,0.00,TxWx,2014-10-21 08:51:00,
2014-10-21 04:56:00,80.7,70.0,29.91,SE,136,4.3,5.6,70,0.00,,,0.00,TxWx,2014-10-21 08:56:00,
2014-10-21 05:01:00,80.8,70.0,29.90,SSE,159,5.6,5.6,70,0.00,,,0.00,TxWx,2014-10-21 09:01:00,
2014-10-21 05:06:00,80.8,70.0,29.90,SE,136,3.7,3.7,70,0.00,,,0.00,TxWx,2014-10-21 09:06:00,
2014-10-21 05:11:00,80.8,70.0,29.90,SE,136,5.0,5.0,70,0.00,,,0.00,TxWx,2014-10-21 09:11:00,
2014-10-21 05:16:00,80.8,70.0,29.91,SE,136,5.6,6.2,69,0.00,,,0.00,TxWx,2014-10-21 09:16:00,